Dewpoint
41 42 43 46 48 48 49 49 51 51 52 51 51 51 51 51 51 50 50 50 49 48
33 36 36 38 40 43 45 46 48 51 51 51 51 51 51 51 50 50 50 49 50 49
33 32 33 35 35 37 38 40 42 46 50 50 51 51 51 51 50 50 50 49 49 49
32 32 31 32 33 34 36 36 37 38 40 43 47 49 50 50 50 49 49 50 49 49
32 32 31 31 32 33 33 33 34 35 36 37 39 44 47 48 49 49 49 49 50 49
31 33 33 33 33 32 32 32 33 33 34 35 36 38 40 42 46 48 48 49 49 49
32 33 34 34 34 34 33 33 33 34 34 35 35 35 38 40 41 42 43 46 48 48
31 32 33 34 33 33 34 34 34 34 34 36 34 32 40 41 40 41 40 42 43 46
27 28 31 31 31 33 33 32 32 32 33 34 32 44 45 45 41 40 40 39 40 42
27 27 28 28 29 30 29 29 30 31 32 33 34 41 41 44 40 40 39 39 40 39
28 28 29 29 30 30 30 31 32 32 33 35 34 39 41 43 39 38 39 39 40 40
28 28 27 28 30 31 31 32 32 33 33 34 35 39 41 42 38 37 38 39 39 39
26 27 27 28 29 30 30 31 32 32 33 35 35 38 38 37 35 35 35 35 38 42
27 27 27 28 29 29 29 30 30 30 31 33 34 36 40 39 36 37 37 36 34 35
Lifted_Index
10 9 9 8 8 8 8 8 8 8 8 7 7 8 8 8 8 9 9 9 10 10
11 11 10 10 10 10 9 9 9 8 8 8 8 8 8 8 8 8 9 9 9 9
13 13 13 13 12 12 12 11 11 10 9 9 9 8 8 8 8 8 8 8 9 9
14 14 14 14 14 14 14 14 13 12 11 11 10 9 9 8 8 8 8 8 9 9
13 13 14 14 15 15 15 15 15 14 14 13 12 11 11 10 9 9 9 9 9 9
13 13 13 14 14 14 15 15 15 15 15 15 15 14 13 12 11 10 10 10 9 9
14 14 14 14 14 14 14 14 15 15 15 16 16 15 15 14 13 12 12 11 11 10
15 15 15 14 14 14 14 15 15 15 15 15 16 16 16 15 14 14 13 13 12 12
15 15 15 15 15 15 15 15 15 15 15 16 16 16 16 15 15 15 14 14 14 13
15 15 16 16 16 16 16 16 16 16 16 16 16 16 16 15 15 15 14 14 14 14
15 15 16 16 16 16 16 16 17 17 17 16 16 16 16 15 15 15 14 14 14 14
16 16 16 16 16 17 17 17 17 17 17 16 16 16 16 16 16 15 15 14 14 14
17 17 17 17 17 17 18 17 17 17 17 17 17 17 17 17 17 16 16 15 15 15
18 18 18 18 18 18 18 18 18 17 17 17 17 17 17 18 18 17 17 16 16 16